Location: Nied?wied?
(53.3665°N, 14.8184°E)
Time: 19:27:18
(UTC+00:00)

ISS - Pass Details

Date: 17 May 2021
Orbit: 417 x 422 km, 51.6° (Epoch: 14 June)

Event Time Altitude Azimuth Distance (km) Brightness Sun altitude
Rises 00:04:15 0° 278° (W) 2,373 0.0 -15.9°
Reaches altitude 10° 00:06:25 10° 271° (W) 1,508 -1.1 -15.8°
Maximum altitude 00:09:37 40° 200° (SSW) 637 -3.4 -15.6°
Drops below altitude 10° 00:12:48 10° 130° (SE) 1,505 -1.2 -15.5°
Sets 00:14:58 0° 122° (ESE) 2,369 -0.1 -15.4°
